Powrót do katalogu

SL-19 R/B

AktywnyPO
NORAD 32957·ROCKET BODY·🇷🇺 Russia

Wystrzelony May 23, 2008 z Plesetsk Cosmodrome

Loading…

Następne Przeloty (najbliższe 24 godziny)

TLE

ŚwieżeSource: Space-Track

Epoka: Sep 14, 2026, 07:59 UTC

1 32957U 08025E   26257.33313387  .00000013  00000-0  68186-5 0  9992
2 32957  82.5058  21.0410 0199588 183.7083 204.1483 12.77762165853983

Śledź SL-19 R/B w czasie rzeczywistym z AllMySat

Download on the App Store